F5ZQC-13 Weather Reports


Display with metric or nautical units.
time (UTC)temp
F
wind
direction
speed
MPH
gust
MPH
rain 1hr
in
rain 24hr
in
rain mn
in
humidity
%
barometer
mb
20260906072410 285 270 3.0 6.0 0.00 0.00 0.00 16 5318.5
20260906072209 247 270 1.0 4.0 0.00 0.00 0.00 16 1714.1
20260906071616 -25 270 4.0 5.0 0.00 0.00 0.00 17 5318.5
20260906071359 715 270 2.0 6.0 0.00 0.00 0.00 16 1799.3
20260906071158 715 270 4.0 6.0 0.00 0.00 0.00 16 4420.7
20260906070958 -24 270 5.0 6.0 0.00 0.00 0.00 16 5318.5
20260906070351 -93 270 3.0 10.0 0.00 0.00 0.00 17 403.4
20260906070152 715 270 4.0 10.0 0.00 0.00 0.00 16 1799.1
20260906065947 -38 270 3.0 11.0 0.00 0.00 0.00 16 5318.5
20260906065744 -77 270 6.0 11.0 0.00 0.00 0.00 16 5318.5
20260906065541 715 270 4.0 10.0 0.00 0.00 0.00 16 4420.6
20260906065353 715 270 8.0 14.0 0.00 0.00 0.00 16 1799.4
20260906065140 722 270 4.0 14.0 0.00 0.00 0.00 16 5318.5
20260906064907 -11 270 4.0 12.0 0.00 0.00 0.00 16 5318.5
20260906064701 -19 270 9.0 9.0 0.00 0.00 0.00 16 5318.5
20260906064257 354 270 7.0 13.0 0.00 0.00 0.00 16 5318.5
20260906062844 715 270 19.0 19.0 0.00 0.00 0.00 16 4420.8
20260906062531 -75 270 4.0 4.0 0.00 0.00 0.00 13 5318.5
20260906062326 -11 270 3.0 3.0 0.00 0.00 0.00 13 5318.5
20260906062131 -86 270 2.0 2.0 0.00 0.00 0.00 13 5320.2
20260906061925 78 270 1.0 1.0 0.00 0.00 0.00 14 5318.5
20260906061316 157 270 2.0 5.0 0.00 0.00 0.00 14 5318.5
20260906060913 212 270 2.0 7.0 0.00 0.00 0.00 13 5318.5
20260906060507 32 270 4.0 5.0 0.00 0.00 0.00 14 5320.2
20260906060310 228 270 4.0 5.0 0.00 0.00 0.00 14 5318.5
20260906055902 283 270 2.0 4.0 0.00 0.00 0.00 13 403.3
20260906055659 -27 270 3.0 3.0 0.00 0.00 0.00 14 5318.5
20260906055255 -22 270 0.0 3.0 0.00 0.00 0.00 13 5318.5
20260906055054 715 270 0.0 3.0 0.00 0.00 0.00 14 1799.4
20260906054651 -20 270 3.0 3.0 0.00 0.00 0.00 14 5318.5
20260906054446 -11 270 2.0 3.0 0.00 0.00 0.00 13 5318.5
20260906054047 -56 270 1.0 2.0 0.00 0.00 0.00 14 5318.5
20260906053638 -14 270 1.0 3.0 0.00 0.00 0.00 13 5318.5
20260906053436 715 270 1.0 3.0 0.00 0.00 0.00 13 1799.4
20260906052428 164 270 0.0 0.0 0.00 0.00 0.00 14 5318.5
20260906052224 715 270 0.0 0.0 0.00 0.00 0.00 14 1799.4
20260906052024 219 270 0.0 0.0 0.00 0.00 0.00 14 5318.5
20260906051821 313 270 0.0 0.0 0.00 0.00 0.00 14 403.4
20260906051416 715 270 0.0 1.0 0.00 0.00 0.00 14 4420.6
20260906051110 715 270 0.0 0.0 0.00 0.00 0.00 14 4421.0
20260906051105 -17 270 0.0 1.0 0.00 0.00 0.00 14 5318.5
20260906051037 715 270 0.0 0.0 0.00 0.00 0.00 14 4421.0
20260906051027 -17 270 0.0 1.0 0.00 0.00 0.00 14 5318.5
20260906050407 -21 270 0.0 1.0 0.00 0.00 0.00 15 5318.5
20260906044348 193 270 2.0 3.0 0.00 0.00 0.00 16 5318.5
20260906043139 -29 270 2.0 2.0 0.00 0.00 0.00 16 5318.5
20260906040304 715 270 3.0 4.0 0.00 0.00 0.00 16 1799.4
20260906035658 239 270 4.0 7.0 0.00 0.00 0.00 17 5318.5
20260906035455 -31 270 3.0 7.0 0.00 0.00 0.00 17 5318.5
20260906035125 715 270 3.0 6.0 0.00 0.00 0.00 18 1799.4
20260906035051 715 270 3.0 6.0 0.00 0.00 0.00 18 1799.4
20260906034648 311 270 2.0 2.0 0.00 0.00 0.00 18 5318.5
20260906034445 -24 270 1.0 2.0 0.00 0.00 0.00 19 5318.5
20260906034043 -19 270 0.0 0.0 0.00 0.00 0.00 20 5318.5
20260906033435 -17 270 1.0 3.0 0.00 0.00 0.00 19 5318.5
20260906033032 -12 270 2.0 3.0 0.00 0.00 0.00 20 5318.5
20260906032830 -29 270 2.0 3.0 0.00 0.00 0.00 20 5318.5
20260906031414 230 270 3.0 3.0 0.00 0.00 0.00 21 5318.5
20260906031214 191 270 2.0 3.0 0.00 0.00 0.00 21 5318.5
20260906030610 -31 270 3.0 3.0 0.00 0.00 0.00 21 5318.5
20260906025353 715 270 4.0 4.0 0.00 0.00 0.00 22 1799.3
20260906025152 -18 270 3.0 4.0 0.00 0.00 0.00 22 5318.5
20260906024949 -31 270 3.0 4.0 0.00 0.00 0.00 22 5318.5
20260906024748 -13 270 3.0 4.0 0.00 0.00 0.00 22 5318.5
20260906024142 170 270 4.0 5.0 0.00 0.00 0.00 22 5318.5
20260906023535 166 270 3.0 3.0 0.00 0.00 0.00 22 5318.5
20260906023334 127 270 1.0 3.0 0.00 0.00 0.00 21 5318.5
20260906022935 182 270 2.0 2.0 0.00 0.00 0.00 21 5318.5
20260906022726 32 270 2.0 3.0 0.00 0.00 0.00 21 5318.5
20260906021918 -26 270 2.0 4.0 0.00 0.00 0.00 22 5318.5
20260906021110 49 270 2.0 3.0 0.00 0.00 0.00 22 5318.5
20260906020910 -19 270 2.0 3.0 0.00 0.00 0.00 23 5318.5
20260906020705 -10 270 3.0 3.0 0.00 0.00 0.00 23 403.4
20260906020506 -14 270 3.0 4.0 0.00 0.00 0.00 23 5318.5
20260906020301 -47 270 3.0 4.0 0.00 0.00 0.00 23 5318.5
20260906015655 101 270 3.0 3.0 0.00 0.00 0.00 22 5318.5
20260906014914 212 270 1.0 3.0 0.00 0.00 0.00 22 5318.5
20260906014645 715 270 2.0 3.0 0.00 0.00 0.00 22 1799.3
20260906014240 228 270 0.0 1.0 0.00 0.00 0.00 21 5318.5
20260906014039 715 270 0.0 1.0 0.00 0.00 0.00 21 1799.4
20260906013634 -27 270 0.0 1.0 0.00 0.00 0.00 21 5318.5
20260906013433 -31 270 0.0 1.0 0.00 0.00 0.00 21 5318.5
20260906013232 715 270 0.0 0.0 0.00 0.00 0.00 21 488.7
20260906012828 -16 270 0.0 0.0 0.00 0.00 0.00 21 5318.5
20260906012624 715 270 0.0 0.0 0.00 0.00 0.00 21 4420.8
20260906012423 -11 270 0.0 3.0 0.00 0.00 0.00 20 5318.5
20260906012220 -15 270 0.0 3.0 0.00 0.00 0.00 20 5318.5
20260906011614 715 270 1.0 1.0 0.00 0.00 0.00 20 1799.3
20260906011412 927 270 0.0 2.0 0.00 0.00 0.00 19 5318.5
20260906011210 538 270 1.0 2.0 0.00 0.00 0.00 19 5318.5
20260906010607 203 270 0.0 0.0 0.00 0.00 0.00 20 5318.5
20260906010159 258 270 0.0 0.0 0.00 0.00 0.00 19 5318.5
20260906005350 -28 270 0.0 0.0 0.00 0.00 0.00 18 5318.5
20260906005149 -32 270 0.0 0.0 0.00 0.00 0.00 18 5318.5
20260906004946 -23 270 0.0 0.0 0.00 0.00 0.00 18 5318.5
20260906004746 -27 270 0.0 0.0 0.00 0.00 0.00 18 5318.5
20260906004342 -21 270 0.0 1.0 0.00 0.00 0.00 18 5318.5
20260906003533 714 270 0.0 1.0 0.00 0.00 0.00 18 4420.7
20260906003422 -10 270 0.0 1.0 0.00 0.00 0.00 18 5318.5
20260906003340 -10 270 0.0 1.0 0.00 0.00 0.00 18 5318.5
20260906003128 835 270 1.0 1.0 0.00 0.00 0.00 18 5321.1
20260906002726 138 270 1.0 2.0 0.00 0.00 0.00 17 5318.5
20260906001916 715 270 0.0 2.0 0.00 0.00 0.00 17 1799.4
20260905235904 -13 270 2.0 2.0 0.00 0.00 0.00 17 5318.5
20260905235653 -16 270 1.0 2.0 0.00 0.00 0.00 17 5318.5
20260905232018 715 270 2.0 3.0 0.00 0.00 0.00 19 4420.7
20260905231615 -13 270 4.0 4.0 0.00 0.00 0.00 18 5318.5
20260905231209 -84 270 3.0 3.0 0.00 0.00 0.00 18 5318.5
20260905230607 -67 270 0.0 0.0 0.00 0.00 0.00 17 5318.5
20260905230359 49 270 0.0 2.0 0.00 0.00 0.00 18 5318.5
20260905225557 136 270 0.0 1.0 0.00 0.00 0.00 18 5318.5
20260905225349 230 270 1.0 1.0 0.00 0.00 0.00 18 5318.5
20260905225146 191 270 0.0 2.0 0.00 0.00 0.00 18 5318.5
20260905224947 715 270 1.0 2.0 0.00 0.00 0.00 19 1799.4
20260905224746 247 270 2.0 2.0 0.00 0.00 0.00 19 5318.5
20260905224342 302 270 0.0 0.0 0.00 0.00 0.00 19 5318.5
20260905224144 -25 270 0.0 1.0 0.00 0.00 0.00 19 5318.5
20260905223935 -29 270 0.0 3.0 0.00 0.00 0.00 19 5318.5
20260905223329 -14 270 4.0 4.0 0.00 0.00 0.00 20 5318.5
20260905223134 -18 270 3.0 6.0 0.00 0.00 0.00 20 5318.5
20260905222924 -93 270 4.0 6.0 0.00 0.00 0.00 20 5318.5
20260905222322 715 270 1.0 1.0 0.00 0.00 0.00 19 4420.8
20260905221914 111 270 0.0 1.0 0.00 0.00 0.00 19 5318.5
20260905221733 722 270 0.0 1.0 0.00 0.00 0.00 18 5318.5
20260905221509 166 270 0.0 1.0 0.00 0.00 0.00 19 4010.3
20260905221307 127 270 0.0 2.0 0.00 0.00 0.00 19 5318.5
20260905221107 221 270 0.0 6.0 0.00 0.00 0.00 19 5318.5
20260905220257 715 270 4.0 10.0 0.00 0.00 0.00 18 1799.4
20260905214843 -19 270 5.0 7.0 0.00 0.00 0.00 19 5318.5
20260905214640 -10 270 5.0 9.0 0.00 0.00 0.00 20 5318.5
20260905214438 -14 270 5.0 9.0 0.00 0.00 0.00 20 5318.5
20260905214236 -47 270 8.0 9.0 0.00 0.00 0.00 20 5318.5
20260905213428 630 270 7.0 7.0 0.00 0.00 0.00 22 5318.5
20260905213226 157 270 6.0 7.0 0.00 0.00 0.00 22 5318.5
20260905213025 118 270 4.0 5.0 0.00 0.00 0.00 22 5318.5
20260905212418 267 270 3.0 5.0 0.00 0.00 0.00 22 5318.5
20260905212229 228 270 4.0 6.0 0.00 0.00 0.00 22 5318.5
20260905211407 715 270 4.0 4.0 0.00 0.00 0.00 23 4420.8
20260905211207 -22 270 3.0 3.0 0.00 0.00 0.00 23 5318.5
20260905211012 -26 270 2.0 3.0 0.00 0.00 0.00 23 5318.5
20260905210357 -11 270 2.0 3.0 0.00 0.00 0.00 23 4010.3
20260905210155 715 270 2.0 3.0 0.00 0.00 0.00 22 1799.3
20260905205350 697 270 3.0 4.0 0.00 0.00 0.00 22 5318.5
20260905204537 180 270 3.0 3.0 0.00 0.00 0.00 22 5318.5
20260905204334 715 270 2.0 2.0 0.00 0.00 0.00 22 1799.3
20260905203931 196 270 1.0 1.0 0.00 0.00 0.00 22 5318.5
20260905202514 -19 270 1.0 1.0 0.00 0.00 0.00 21 5318.5
20260905202312 -23 270 0.0 0.0 0.00 0.00 0.00 21 5318.5
20260905201911 -18 270 0.0 0.0 0.00 0.00 0.00 21 5318.5
20260905201503 -12 270 0.0 0.0 0.00 0.00 0.00 21 5318.5
20260905200654 115 270 1.0 2.0 0.00 0.00 0.00 21 5318.5
20260905200250 -31 270 0.0 2.0 0.00 0.00 0.00 21 5318.5
20260905195644 715 270 1.0 3.0 0.00 0.00 0.00 20 1799.4
20260905195241 242 270 1.0 2.0 0.00 0.00 0.00 20 5318.5
20260905194431 715 270 1.0 4.0 0.00 0.00 0.00 20 1799.1
20260905193421 -98 270 1.0 3.0 0.00 0.00 0.00 19 5318.5
20260905192411 715 270 3.0 5.0 0.00 0.00 0.00 18 1799.1
20260905192006 161 270 1.0 4.0 0.00 0.00 0.00 18 5318.5
20260905191603 -31 270 0.0 4.0 0.00 0.00 0.00 18 5318.5
20260905185340 -20 270 1.0 2.0 0.00 0.00 0.00 17 5318.5
20260905184535 -90 270 2.0 2.0 0.00 0.00 0.00 16 5318.5
20260905184329 32 270 1.0 2.0 0.00 0.00 0.00 16 5318.5
20260905184127 715 270 1.0 2.0 0.00 0.00 0.00 16 1799.4
20260905183927 584 270 1.0 1.0 0.00 0.00 0.00 15 5318.5
20260905183724 715 270 1.0 1.0 0.00 0.00 0.00 15 1799.4
20260905183117 168 270 2.0 4.0 0.00 0.00 0.00 14 5318.5
20260905182915 262 270 1.0 4.0 0.00 0.00 0.00 14 5318.5
20260905182511 318 270 1.0 3.0 0.00 0.00 0.00 13 5318.5
20260905181904 715 270 4.0 6.0 0.00 0.00 0.00 13 1799.3
20260905181703 -22 270 3.0 6.0 0.00 0.00 0.00 13 5318.5
20260905181500 -26 270 4.0 6.0 0.00 0.00 0.00 12 5318.5
20260905181258 -17 270 5.0 6.0 0.00 0.00 0.00 12 5318.5
20260905181056 715 270 5.0 6.0 0.00 0.00 0.00 11 4480.2
20260905180249 715 270 5.0 7.0 0.00 0.00 0.00 11 1799.3
20260905180046 715 270 4.0 7.0 0.00 0.00 0.00 10 4420.8
20260905175642 492 270 6.0 7.0 0.00 0.00 0.00 10 5318.5
20260905175440 715 270 6.0 7.0 0.00 0.00 0.00 10 1799.4
20260905173419 -23 270 7.0 7.0 0.00 0.00 0.00 8 5318.5
20260905172611 -12 270 4.0 6.0 0.00 0.00 0.00 8 5318.5
20260905172408 -16 270 4.0 5.0 0.00 0.00 0.00 7 5318.5
20260905172210 715 270 4.0 7.0 0.00 0.00 0.00 7 1799.4
20260905172004 -10 270 6.0 7.0 0.00 0.00 0.00 7 5318.5
20260905171601 715 270 5.0 7.0 0.00 0.00 0.00 6 4420.8
20260905171227 715 270 3.0 7.0 0.00 0.00 0.00 6 1799.3
20260905171156 715 270 3.0 7.0 0.00 0.00 0.00 6 1799.3
20260905170954 715 270 6.0 6.0 0.00 0.00 0.00 6 488.7
20260905170146 715 270 5.0 7.0 0.00 0.00 0.00 5 1799.4
20260905165738 247 270 6.0 7.0 0.00 0.00 0.00 4 5318.5
20260905165132 -25 270 5.0 6.0 0.00 0.00 0.00 4 5318.5
20260905164931 -29 270 4.0 6.0 0.00 0.00 0.00 4 5318.5
20260905164324 -14 270 4.0 7.0 0.00 0.00 0.00 4 5318.5
20260905163920 -93 270 4.0 6.0 0.00 0.00 0.00 4 5318.5
20260905163112 170 270 6.0 7.0 0.00 0.00 0.00 4 403.3
20260905162910 111 270 5.0 6.0 0.00 0.00 0.00 4 5318.5
20260905161901 182 270 3.0 8.0 0.00 0.00 0.00 4 5318.5
20260905161456 237 270 6.0 8.0 0.00 0.00 0.00 4 5318.5
20260905161258 -32 270 4.0 7.0 0.00 0.00 0.00 4 5320.2
20260905161055 293 270 6.0 6.0 0.00 0.00 0.00 4 5318.5
20260905160647 -30 270 4.0 8.0 0.00 0.00 0.00 4 5318.5
20260905160445 715 270 6.0 7.0 0.00 0.00 0.00 5 1799.3
20260905160245 -25 270 6.0 6.0 0.00 0.00 0.00 5 5318.5
20260905160042 715 270 4.0 6.0 0.00 0.00 0.00 5 1799.4
20260905155636 715 270 2.0 5.0 0.00 0.00 0.00 5 1799.4
20260905154629 715 270 5.0 8.0 0.00 0.00 0.00 4 1799.4
20260905154427 630 270 5.0 8.0 0.00 0.00 0.00 4 5318.5
20260905153418 267 270 2.0 7.0 0.00 0.00 0.00 4 5318.5
20260905153212 228 270 2.0 7.0 0.00 0.00 0.00 5 5318.5
20260905152807 283 270 5.0 7.0 0.00 0.00 0.00 5 5318.5
20260905152605 -27 270 7.0 7.0 0.00 0.00 0.00 5 5318.5
20260905152201 -22 270 4.0 8.0 0.00 0.00 0.00 5 5318.5
20260905152001 715 270 7.0 8.0 0.00 0.00 0.00 5 4480.2
20260905151801 49 270 4.0 6.0 0.00 0.00 0.00 5 5318.5
20260905151555 715 270 6.0 6.0 0.00 0.00 0.00 5 1799.3
20260905151153 715 270 4.0 8.0 0.00 0.00 0.00 4 4420.7
20260905150343 927 270 1.0 7.0 0.00 0.00 0.00 5 5318.5
20260905150140 -31 270 6.0 7.0 0.00 0.00 0.00 5 5318.5
20260905145939 714 270 5.0 7.0 0.00 0.00 0.00 5 4420.7
20260905145738 715 270 6.0 7.0 0.00 0.00 0.00 5 1799.4
20260905145534 203 270 4.0 4.0 0.00 0.00 0.00 5 5318.5
20260905144730 715 270 0.0 7.0 0.00 0.00 0.00 5 1799.4
20260905144322 715 270 5.0 8.0 0.00 0.00 0.00 6 1799.4
20260905144120 -32 270 5.0 9.0 0.00 0.00 0.00 6 5318.5
20260905143109 -12 270 4.0 7.0 0.00 0.00 0.00 6 5318.5
20260905141251 193 270 6.0 8.0 0.00 0.00 0.00 6 5318.5
20260905140448 304 270 8.0 8.0 0.00 0.00 0.00 7 5318.5
20260905140038 -29 270 5.0 7.0 0.00 0.00 0.00 7 5318.5
20260905135030 -22 270 10.0 10.0 0.00 0.00 0.00 7 5318.5
20260905134826 -13 270 9.0 10.0 0.00 0.00 0.00 6 5318.5
20260905134629 715 270 9.0 12.0 0.00 0.00 0.00 7 1799.4
20260905134222 -11 270 7.0 11.0 0.00 0.00 0.00 8 5318.5
20260905133817 743 270 5.0 11.0 0.00 0.00 0.00 7 5318.5
20260905133646 239 270 6.0 10.0 0.00 0.00 0.00 9 5318.5
20260905133613 354 270 9.0 11.0 0.00 0.00 0.00 8 5318.5
20260905133414 129 270 7.0 11.0 0.00 0.00 0.00 7 5318.5
20260905133210 906 270 4.0 9.0 0.00 0.00 0.00 8 5318.5
20260905132603 239 270 6.0 10.0 0.00 0.00 0.00 9 5318.5
20260905132404 201 270 7.0 10.0 0.00 0.00 0.00 8 5318.5
20260905132002 256 270 6.0 7.0 0.00 0.00 0.00 8 5318.5
20260905131553 311 270 3.0 9.0 0.00 0.00 0.00 9 5318.5
20260905131150 -28 270 7.0 11.0 0.00 0.00 0.00 8 5318.5
20260905130954 32 270 9.0 11.0 0.00 0.00 0.00 8 5320.2
20260905125939 -12 270 6.0 10.0 0.00 0.00 0.00 9 5318.5
20260905125330 715 270 5.0 7.0 0.00 0.00 0.00 9 1799.4
20260905124928 814 270 6.0 8.0 0.00 0.00 0.00 10 5318.5
20260905124732 714 270 7.0 8.0 0.00 0.00 0.00 10 4420.7
20260905121531 145 270 4.0 7.0 0.00 0.00 0.00 12 5318.5
20260905115308 -13 270 6.0 9.0 0.00 0.00 0.00 12 5318.5
20260905115107 -17 270 5.0 9.0 0.00 0.00 0.00 13 5318.5
20260905114258 -67 270 4.0 9.0 0.00 0.00 0.00 13 5318.5
20260905114057 262 270 7.0 9.0 0.00 0.00 0.00 13 5318.5
20260905113651 -31 270 5.0 11.0 0.00 0.00 0.00 13 5318.5
20260905113450 175 270 11.0 11.0 0.00 0.00 0.00 13 5318.5
20260905113046 715 270 9.0 9.0 0.00 0.00 0.00 13 1799.3
20260905112641 32 270 6.0 6.0 0.00 0.00 0.00 13 5318.5
20260905112439 247 270 4.0 9.0 0.00 0.00 0.00 13 5318.5
20260905111227 -24 270 5.0 8.0 0.00 0.00 0.00 13 5318.5
20260905110824 -18 270 7.0 7.0 0.00 0.00 0.00 13 5318.5
20260905105610 111 270 8.0 9.0 0.00 0.00 0.00 12 5318.5
20260905105206 715 270 5.0 12.0 0.00 0.00 0.00 12 1799.3
20260905103752 293 270 11.0 13.0 0.00 0.00 0.00 11 5318.5
20260905102337 -10 270 8.0 10.0 0.00 0.00 0.00 12 5318.5
20260905101933 715 270 10.0 10.0 0.00 0.00 0.00 13 1799.4
20260905101329 49 270 5.0 7.0 0.00 0.00 0.00 13 5318.5
20260905100522 212 270 5.0 7.0 0.00 0.00 0.00 14 5318.5
20260905100316 173 270 3.0 8.0 0.00 0.00 0.00 14 403.4
20260905094659 715 270 5.0 6.0 0.00 0.00 0.00 17 4420.8
20260905094255 715 270 2.0 4.0 0.00 0.00 0.00 18 1799.3
20260905093648 -56 270 2.0 4.0 0.00 0.00 0.00 18 403.3
20260905093243 -14 270 4.0 4.0 0.00 0.00 0.00 18 5318.5
20260905092437 32 270 1.0 2.0 0.00 0.00 0.00 19 5320.2
20260905092035 164 270 0.0 3.0 0.00 0.00 0.00 20 5318.5
20260905091629 715 270 4.0 4.0 0.00 0.00 0.00 20 1799.3
20260905091439 313 270 2.0 4.0 0.00 0.00 0.00 20 5318.5
20260905090214 715 270 5.0 7.0 0.00 0.00 0.00 20 1799.4
20260905085609 -15 270 5.0 6.0 0.00 0.00 0.00 21 5318.5
20260905085406 -65 270 4.0 4.0 0.00 0.00 0.00 21 1714.1
20260905085204 714 270 2.0 2.0 0.00 0.00 0.00 21 4420.8
20260905084556 446 270 1.0 3.0 0.00 0.00 0.00 22 5318.5
20260905084404 138 270 3.0 4.0 0.00 0.00 0.00 21 5318.5
20260905084153 998 270 3.0 5.0 0.00 0.00 0.00 21 5318.5
20260905083548 249 270 6.0 9.0 0.00 0.00 0.00 20 5318.5
20260905082135 -27 270 4.0 6.0 0.00 0.00 0.00 21 5318.5
20260905081931 -18 270 6.0 6.0 0.00 0.00 0.00 21 5318.5
20260905081729 -22 270 3.0 6.0 0.00 0.00 0.00 21 5318.5
20260905081531 -13 270 5.0 6.0 0.00 0.00 0.00 21 403.4
20260905081325 715 270 5.0 6.0 0.00 0.00 0.00 21 1799.3
20260905080720 -19 270 4.0 6.0 0.00 0.00 0.00 22 5318.5
20260905075915 906 270 4.0 6.0 0.00 0.00 0.00 22 5318.5
20260905075306 715 270 2.0 4.0 0.00 0.00 0.00 23 1799.4
20260905075101 715 270 4.0 4.0 0.00 0.00 0.00 23 488.7
20260905074455 -30 270 3.0 4.0 0.00 0.00 0.00 25 5318.5
20260905074253 311 270 3.0 4.0 0.00 0.00 0.00 25 5318.5